Weather Roundup
Issued by NWS Springfield, MO

Home | Current Version | Previous Version | Text Only | Print | Product List | Glossary On
Versions: 1 2 3 4 5 6 7 8 9 10 11 12 13 14 15 16 17 18 19 20 21 22 23 24 25 26 27 28 29 30 31 32 33 34 35 36 37 38 39 40 41 42 43 44 45 46 47 48 49 50
000
NZUS99 KSGF 040059
HRRSGF

HOURLY WEATHER
NATIONAL WEATHER SERVICE SPRINGFIELD MO
800 PM CDT SUN MAY 03 2015

......SGF CWA......

CITY           SKY/WX    TMP DP  RH WIND       PRES   REMARKS
SPRINGFIELD    CLOUDY    73  55  53 S9        29.94R
JOPLIN         MOCLDY    75  57  53 S9        29.94R
WEST PLAINS    PTCLDY    73  52  47 S6        30.01R
ROLLA          PTCLDY    74  52  46 S12       29.94R
OSAGE BEACH    MOCLDY    75  54  46 S5        29.93R
BRANSON        MOCLDY    73  55  53 CALM      29.99S

......SURROUNDING SGF CWA......

CITY           SKY/WX    TMP DP  RH WIND       PRES   REMARKS
CHANUTE        MOCLDY    75  58  55 S14G24    29.88S
PARSONS        PTCLDY    74  59  59 S9        29.90F
COFFEYVILLE    MOCLDY    74  56  53 S14       29.89F
EMPORIA        PTCLDY    75  56  51 S17G24    29.84R
SILOAM SPRINGS MOCLDY    72  54  53 S12       29.98S
HARRISON AR    MOCLDY    71  56  58 S5        30.00R
NEAR YELLVILLE PTCLDY    75  55  50 SE3       29.97S

......KANSAS AND MISSOURI......

CITY           SKY/WX    TMP DP  RH WIND       PRES   REMARKS
KANSAS CTY INT MOCLDY    75  59  57 S18       29.83R
DOWNTOWN KC    PTCLDY    79  57  46 S15G25    29.83R
COLUMBIA       MOCLDY    74  56  53 S8        29.91R
SEDALIA        MOCLDY    75  56  51 S10       29.90F
ST JOSEPH      MOCLDY    78  59  51 S12       29.80R
ST LOUIS       CLOUDY    80  48  32 S9        29.94S
SPIRIT OF STL  CLOUDY    75  52  44 S6        29.93R
KIRKSVILLE     PTCLDY    75  58  55 S8        29.87R
WICHITA        PTCLDY    76  58  53 S17       29.84R
TOPEKA         MOCLDY    80  56  43 S12       29.81R
OLATHE         MOCLDY    75  59  57 S12       29.85R

......TENNESSEE......

CITY           SKY/WX    TMP DP  RH WIND       PRES   REMARKS
MEMPHIS        PTCLDY    77  49  37 SE5       30.04S
NASHVILLE      MOCLDY    71  49  45 S3        30.10R

......ARKANSAS.......

CITY           SKY/WX    TMP DP  RH WIND       PRES   REMARKS
FAYETTEVILLE   MOCLDY    71  57  61 S6        29.98R
FT SMITH       CLEAR     76  54  46 S7        29.96R
LITTLE ROCK    MOCLDY    75  57  53 S6        30.00S

......OKLAHOMA.......

CITY           SKY/WX    TMP DP  RH WIND       PRES   REMARKS
TULSA          MOCLDY    78  56  46 S16       29.90S
PONCA CITY     PTCLDY    76  56  49 S14G23    29.85F
MCALESTER      CLEAR     75  53  46 S7        29.95S
OKLAHOMA CITY  PTCLDY    73  51  46 S12       29.89F

......IOWA............

CITY           SKY/WX    TMP DP  RH WIND       PRES   REMARKS
DES MOINES     MOCLDY    77  58  51 S9        29.75F
QUAD CITIES    MOCLDY    78  55  44 S9        29.83S

......ILLINOIS........

CITY           SKY/WX    TMP DP  RH WIND       PRES   REMARKS
QUINCY         MOCLDY    75  53  46 SE7       29.89R
CHICAGO        LGT RAIN  62  59  90 S8        29.94F



USA.gov is the U.S. government's official web portal to all federal, state and local government web resources and services.